Location: Argonnex
(45.9500°N, 6.1333°E)
Time: 17:33:57
(UTC+00:00)

ATLAS CENTAUR R/B - Pass Details

Date: 28 January 2023
Orbit: 449 x 650 km, 64.7° (Epoch: 28 March)

Event Time Altitude Azimuth Distance (km) Brightness Sun altitude
Rises 17:33:35 0° 195° (SSW) 2,986 5.5 -10.4°
Reaches altitude 10° 17:35:59 10° 189° (S) 2,074 4.6 -10.8°
Maximum altitude 17:40:27 42° 119° (ESE) 932 2.1 -11.6°
Enters shadow 17:43:55 15° 53° (NE) 1,708 3.3 -12.2°
